Fort Eustis, VA

4:20 AM EDT on July 25, 2017 (GMT -0400)
Felker Army Air Field

Weather History for KFAF - October, 2011

Change the Weather History Date:

Sunday, October 30, 2011

  Actual Average Record
Temperature  
Mean Temperature 46 °F -  
Max Temperature 55 °F 64 °F 84 °F (1996)
Min Temperature 37 °F 47 °F 36 °F (2008)
Degree Days  
Heating Degree Days 19    
Moisture  
Dew Point 33 °F    
Average Humidity 70    
Maximum Humidity 93    
Minimum Humidity 34    
Precipitation  
Precipitation 0.00 in - - ()
Sea Level Pressure  
Sea Level Pressure 30.27 in    
Wind  
Wind Speed 8 mph (NNW)    
Max Wind Speed 15 mph    
Max Gust Speed 23 mph    
Visibility 10 miles    
Events      
Averages and records for this station are not official NWS values.
T = Trace of Precipitation, MM = Missing Value Source: NWS Daily Summary

Daily Weather History Graph

Daily Weather History Graph

Search for Another Location

Airport or City:

Trip Planner

Search our weather history database for the weather conditions in past years. The results will help you decide how hot, cold, wet, or windy it might be!

Date:

Astronomy

Oct. 30, 2011 Rise Set
Actual Time 7:28 AM EDT 6:11 PM EDT
Civil Twilight 7:01 AM EDT 6:38 PM EDT
Nautical Twilight 6:30 AM EDT 7:08 PM EDT
Astronomical Twilight 6:00 AM EDT 7:38 PM EDT
Moon 11:41 AM EDT (10/30) 9:41 PM EDT (10/30)
Length of Visible Light 11h 36m
Length of Day
10h 42m
Waxing Crescent, 20% of the Moon is Illuminated
Oct 30
Waxing Crescent
Nov 2
First Quarter
Nov 10
Full
Nov 18
Last Quarter
Nov 25
New

Hourly Weather History & Observations

Time (EDT) Temp. Windchill Dew Point Humidity Pressure Visibility Wind Dir Wind Speed Gust Speed Precip Events Conditions
12:55 AM 39.6 °F 31.3 °F 34.7 °F 83% 30.07 in 10.0 mi NNW 15.0 mph 23.0 mph N/A   Clear
1:55 AM 38.8 °F 32.1 °F 34.0 °F 83% 30.10 in 10.0 mi NNW 10.4 mph 21.9 mph N/A   Scattered Clouds
2:55 AM 38.5 °F 33.4 °F 33.8 °F 83% 30.12 in 10.0 mi NW 6.9 mph - N/A   Clear
3:55 AM 39.0 °F 31.8 °F 33.3 °F 80% 30.14 in 10.0 mi NNW 11.5 mph 18.4 mph N/A   Clear
4:55 AM 39.2 °F 33.0 °F 34.0 °F 82% 30.17 in 10.0 mi NNW 9.2 mph - N/A   Clear
5:55 AM 38.8 °F 32.6 °F 33.8 °F 82% 30.19 in 10.0 mi NNW 9.2 mph - N/A   Clear
6:55 AM 39.0 °F 31.4 °F 33.6 °F 81% 30.22 in 10.0 mi NNW 12.7 mph 17.3 mph N/A   Partly Cloudy
7:55 AM 38.8 °F 33.2 °F 33.8 °F 82% 30.25 in 10.0 mi North 8.1 mph - N/A   Clear
8:55 AM 40.5 °F 35.8 °F 34.2 °F 78% 30.27 in 10.0 mi NNW 6.9 mph - N/A   Clear
9:55 AM 43.9 °F 39.9 °F 34.0 °F 68% 30.29 in 10.0 mi Variable 6.9 mph - N/A   Clear
10:55 AM 47.3 °F - 32.5 °F 57% 30.31 in 10.0 mi NNW 5.8 mph - N/A   Clear
11:55 AM 49.5 °F - 30.9 °F 49% 30.31 in 10.0 mi NNW 5.8 mph - N/A   Clear
12:55 PM 50.9 °F - 30.4 °F 45% 30.31 in 10.0 mi NW 8.1 mph - N/A   Clear
1:55 PM 52.5 °F - 32.0 °F 46% 30.30 in 10.0 mi Variable 4.6 mph - N/A   Clear
2:55 PM 53.6 °F - 29.8 °F 40% 30.30 in 10.0 mi West 6.9 mph - N/A   Clear
3:55 PM 54.5 °F - 27.9 °F 36% 30.30 in 10.0 mi NNE 3.5 mph - N/A   Clear
4:55 PM 54.5 °F - 26.8 °F 34% 30.30 in 10.0 mi NNE 3.5 mph - N/A   Clear
5:55 PM 52.3 °F - 28.9 °F 41% 30.31 in 10.0 mi Calm Calm - N/A   Clear
6:55 PM 43.7 °F - 36.9 °F 77% 30.32 in 10.0 mi Calm Calm - N/A   Clear
7:55 PM 41.4 °F - 37.2 °F 85% 30.35 in 10.0 mi Calm Calm - N/A   Clear
8:55 PM 39.7 °F - 36.5 °F 88% 30.35 in 10.0 mi Calm Calm - N/A   Clear
9:55 PM 39.9 °F - 36.7 °F 88% 30.37 in 10.0 mi Calm Calm - N/A   Clear
10:55 PM 38.7 °F - 36.5 °F 92% 30.37 in 10.0 mi Calm Calm - N/A   Clear
11:55 PM 37.8 °F - 35.8 °F 93% 30.38 in 10.0 mi Calm Calm - N/A   Clear